Location: Tel Aviv
(32.0670°N, 34.7670°E)
Time: 08:39:18
(UTC+03:00)

AO-7 - Visible Passes

Search period start: 16 September 2024 00:00
Search period end: 26 September 2024 00:00
Orbit: 1440 x 1458 km, 102.0° (Epoch: 15 September)

Date Brightness Start Highest point End Pass type
(mag) Time Alt. Az. Time Alt. Az. Time Alt. Az.
16 Sep ? 18:58:47 10° SW 19:04:36 21° W 19:10:30 10° NW visible
17 Sep ? 05:11:11 10° NE 05:18:13 29° E 05:25:10 10° SSE visible
19 Sep ? 05:04:23 10° NE 05:11:03 26° E 05:17:39 10° SSE visible
20 Sep ? 05:55:56 10° NNE 06:04:12 61° ESE 06:12:23 10° S visible
21 Sep ? 04:57:39 10° NE 05:03:53 23° E 05:10:03 10° SE visible
22 Sep ? 05:48:55 10° NNE 05:57:04 54° ESE 06:05:08 10° S visible
23 Sep ? 04:50:58 10° NE 04:56:43 20° E 05:02:23 10° SE visible
23 Sep ? 19:35:03 10° WSW 19:36:34 11° W 19:38:06 10° W visible
24 Sep ? 05:41:56 10° NNE 05:49:57 49° ESE 05:57:53 10° S visible
25 Sep ? 04:44:24 10° ENE 04:49:31 17° E 04:54:34 10° SE visible
25 Sep ? 19:26:03 10° WSW 19:29:22 13° W 19:32:42 10° WNW visible
